Durant, OK

5:05 AM CST on December 14, 2019 (GMT -0600)
Eaker

Weather History for KDUA - November, 2019

Change the Weather History Date:

Tuesday, November 12, 2019

  Actual Average (WUND) Record (WUND)
Temperature  
Mean Temperature 29 °F -  
Max Temperature 39 °F - - (-1)
Min Temperature 19 °F - - (-1)
Degree Days  
Heating Degree Days 36    
Moisture  
Dew Point 11 °F    
Average Humidity 49    
Maximum Humidity 74    
Minimum Humidity 28    
Precipitation  
Precipitation 0.00 in - - ()
Sea Level Pressure  
Sea Level Pressure 30.60 in    
Wind  
Wind Speed 12 mph (NNW)    
Max Wind Speed 25 mph    
Max Gust Speed 32 mph    
Visibility 10 miles    
Events      
Averages and records for this station are not official NWS values.
T = Trace of Precipitation, MM = Missing Value Source: NWS Daily Summary

Daily Weather History Graph

Daily Weather History Graph

Search for Another Location

Airport or City:

Astronomy

Nov. 12, 2019 Rise Set
Actual Time 6:54 AM CST 5:24 PM CST
Civil Twilight 6:28 AM CST 5:50 PM CST
Nautical Twilight 5:58 AM CST 6:20 PM CST
Astronomical Twilight 5:28 AM CST 6:49 PM CST
Moon 5:50 PM CST (11/12) 6:49 AM CST (11/12)
Length of Visible Light 11h 21m
Length of Day
10h 29m
Full, 100% of the Moon is Illuminated
Nov 12
Full
Nov 19
Last Quarter
Nov 26
New
Dec 4
First Quarter
Dec 11
Full

Hourly Weather History & Observations

Time (CST) Temp. Windchill Dew Point Humidity Pressure Visibility Wind Dir Wind Speed Gust Speed Precip Events Conditions
12:17 AM 26.6 °F 13.8 °F 15.8 °F 64% 30.60 in 10.0 mi NNW 17.3 mph 26.5 mph N/A   Clear
12:38 AM 26.6 °F 11.4 °F 14.0 °F 59% 30.60 in 10.0 mi North 25.3 mph 32.2 mph N/A   Clear
1:38 AM - - - N/A% - - North - - N/A   Unknown
1:57 AM - - - N/A% - - North - - N/A   Unknown
2:18 AM - - - N/A% - - North - - N/A   Unknown
2:38 AM - - - N/A% - - North - - N/A   Unknown
2:57 AM - - - N/A% - - North - - N/A   Unknown
3:17 AM - - - N/A% - - North - - N/A   Unknown
3:37 AM - - - N/A% - - North - - N/A   Unknown
3:57 AM - - - N/A% - - North - - N/A   Unknown
4:17 AM - - - N/A% 30.64 in - NNW 13.8 mph - N/A   Unknown
4:37 AM 21.2 °F 7.8 °F 12.2 °F 68% 30.64 in 10.0 mi North 15.0 mph 21.9 mph N/A   Clear
4:57 AM 21.2 °F 7.3 °F 12.2 °F 68% 30.65 in 10.0 mi NNW 16.1 mph - N/A   Clear
5:17 AM 21.2 °F 9.5 °F 14.0 °F 74% 30.65 in 10.0 mi NNW 11.5 mph 17.3 mph N/A   Clear
5:39 AM 21.2 °F 8.3 °F 12.2 °F 68% 30.65 in 10.0 mi NNW 13.8 mph 19.6 mph N/A   Clear
5:57 AM 21.2 °F 10.1 °F 12.2 °F 68% 30.66 in 10.0 mi NNW 10.4 mph - N/A   Clear
6:17 AM 21.2 °F 9.5 °F 12.2 °F 68% 30.66 in 10.0 mi NNW 11.5 mph 16.1 mph N/A   Clear
6:37 AM 19.4 °F 8.6 °F 12.2 °F 74% 30.66 in 10.0 mi NNW 9.2 mph - N/A   Clear
6:57 AM 19.4 °F 7.2 °F 12.2 °F 74% 30.66 in 10.0 mi NNW 11.5 mph 17.3 mph N/A   Clear
7:17 AM 19.4 °F 7.2 °F 12.2 °F 74% 30.67 in 10.0 mi NNW 11.5 mph - N/A   Clear
7:59 AM 21.2 °F 8.3 °F 12.2 °F 68% 30.68 in 10.0 mi NNW 13.8 mph 19.6 mph N/A   Clear
8:17 AM 23.0 °F 12.4 °F 12.2 °F 63% 30.68 in 10.0 mi NNW 10.4 mph 17.3 mph N/A   Clear
8:37 AM 24.8 °F 15.3 °F 12.2 °F 59% 30.67 in 10.0 mi North 9.2 mph - N/A   Clear
8:57 AM 24.8 °F 12.4 °F 10.4 °F 54% 30.67 in 10.0 mi NNE 15.0 mph - N/A   Clear
9:37 AM 26.6 °F 16.8 °F 10.4 °F 51% 30.67 in 10.0 mi North 10.4 mph - N/A   Clear
10:17 AM 28.4 °F 18.5 °F 10.4 °F 47% 30.67 in 10.0 mi North 11.5 mph 17.3 mph N/A   Clear
10:38 AM 28.4 °F 18.0 °F 10.4 °F 47% 30.67 in 10.0 mi NNW 12.7 mph 18.4 mph N/A   Clear
10:57 AM 30.2 °F 21.3 °F 10.4 °F 44% 30.66 in 10.0 mi NNW 10.4 mph - N/A   Clear
11:19 AM 30.2 °F 21.3 °F 10.4 °F 44% 30.66 in 10.0 mi NNW 10.4 mph - N/A   Clear
11:37 AM 32.0 °F 23.6 °F 10.4 °F 41% 30.65 in 10.0 mi NNE 10.4 mph - N/A   Clear
11:57 AM 32.0 °F 24.2 °F 10.4 °F 41% 30.65 in 10.0 mi North 9.2 mph - N/A   Clear
12:19 PM 33.8 °F 26.4 °F 8.6 °F 35% 30.64 in 10.0 mi NNW 9.2 mph - N/A   Clear
12:37 PM 33.8 °F 25.8 °F 8.6 °F 35% 30.62 in 10.0 mi NNW 10.4 mph - N/A   Clear
12:59 PM 35.6 °F 29.9 °F 10.4 °F 35% 30.60 in 10.0 mi NNW 6.9 mph - N/A   Clear
1:58 PM 37.4 °F 29.3 °F 8.6 °F 30% 30.53 in 10.0 mi North 12.7 mph - N/A   Clear
2:17 PM 37.4 °F 29.8 °F 8.6 °F 30% 30.53 in 10.0 mi NNW 11.5 mph - N/A   Clear
2:38 PM 37.4 °F 31.4 °F 8.6 °F 30% 30.53 in 10.0 mi North 8.1 mph 16.1 mph N/A   Clear
2:58 PM 37.4 °F 32.1 °F 8.6 °F 30% 30.51 in 10.0 mi NNW 6.9 mph 17.3 mph N/A   Clear
3:18 PM 37.4 °F 31.4 °F 8.6 °F 30% 30.50 in 10.0 mi NNW 8.1 mph - N/A   Clear
3:58 PM 39.2 °F 33.0 °F 8.6 °F 28% 30.49 in 10.0 mi NNE 9.2 mph - N/A   Clear
4:18 PM 39.2 °F - 8.6 °F 28% 30.49 in 10.0 mi Calm Calm - N/A   Clear
4:38 PM 39.2 °F - 8.6 °F 28% 30.48 in 10.0 mi Calm Calm - N/A   Clear
4:58 PM 37.4 °F - 6.8 °F 28% 30.48 in 10.0 mi Calm Calm - N/A   Clear
5:19 PM 35.6 °F - 8.6 °F 33% 30.48 in 10.0 mi Calm Calm - N/A   Clear
5:38 PM 33.8 °F - 10.4 °F 38% 30.48 in 10.0 mi Calm Calm - N/A   Clear
5:58 PM 30.2 °F - 10.4 °F 44% 30.47 in 10.0 mi Calm Calm - N/A   Clear
6:38 PM 28.4 °F - 14.0 °F 55% 30.48 in 10.0 mi Calm Calm - N/A   Clear
7:18 PM 28.4 °F - 14.0 °F 55% 30.48 in 10.0 mi Calm Calm - N/A   Clear
7:38 PM 28.4 °F - 14.0 °F 55% - - North - - N/A   Unknown
7:58 PM 28.4 °F - 14.0 °F 55% - - North - - N/A   Unknown
8:18 PM - - - N/A% - - North - - N/A   Unknown
8:38 PM - - - N/A% - - North - - N/A   Unknown
8:58 PM - - - N/A% - - North - - N/A   Unknown
9:18 PM - - - N/A% - - North - - N/A   Unknown
9:40 PM - - - N/A% - - North - - N/A   Unknown
10:18 PM - - - N/A% - - North - - N/A   Unknown
10:59 PM - - - N/A% - - North - - N/A   Unknown
11:17 PM - - - N/A% - - North - - N/A   Unknown
11:38 PM - - - N/A% - - North - - N/A   Unknown
11:57 PM - - - N/A% - - North - - N/A   Unknown